{"data":{"norad_id":68227,"intl_designator":"2026-053W","name":"STARLINK-37083","alt_names":[],"object_type":"PAYLOAD","status":"ACTIVE","operator":null,"country":"US","launch_date":"2026-03-17","launch_site_code":"AFWTR","launch_vehicle":null,"mission":null,"orbit_class":"UNKNOWN","rcs_meters":null,"size_class":null,"mass_kg":null,"dimensions":null,"purposes":["comms"],"wikipedia_slug":null,"has_3d_model":false,"image_url":null,"decayed_at":null,"tle_current":{"epoch":"2026-05-25T02:39:38.178720Z","epoch_age_seconds":55655,"freshness":"FRESH","line1":"1 68227U 26053W   26145.11085855  .00012989  00000+0  40393-3 0  9992","line2":"2 68227  97.2886  20.6198 0001509  94.9807 265.1608 15.33449059 11907","mean_motion":15.33449059,"eccentricity":0.0001509,"inclination_deg":97.2886,"raan_deg":20.6198,"arg_perigee_deg":94.9807,"mean_anomaly_deg":265.1608,"bstar":0.00040393,"rev_number":1190,"period_min":93.90595608954,"perigee_km":464.49838826056,"apogee_km":466.56380729247,"semimajor_km":6843.6680977765,"source":"CELESTRAK","updated_at":"2026-05-25T13:38:21.881497Z"}}}